| time (UTC) | temp C | wind direction | speed KPH | gust KPH | rain 1hr cm | rain 24hr cm | rain mn cm | humidity % | barometer mb |
| 20260506111508 | 7 | 346 | 8.0 | 12.9 | 0.05 | 1.85 | 0.97 | 97 | 1006.6 |
| 20260506110007 | 7 | 34 | 6.4 | 12.9 | 0.08 | 1.85 | 0.97 | 96 | 1006.1 |
| 20260506104505 | 7 | 51 | 1.6 | 11.3 | 0.10 | 1.85 | 0.97 | 97 | 1005.1 |
| 20260506103004 | 7 | 325 | 6.4 | 11.3 | 0.13 | 1.83 | 0.94 | 96 | 1005.5 |
| 20260506101500 | 7 | 325 | 4.8 | 9.7 | 0.10 | 1.80 | 0.91 | 97 | 1005.9 |
| 20260506100059 | 8 | 334 | 6.4 | 14.5 | 0.10 | 1.78 | 0.89 | 97 | 1006.0 |
| 20260506094621 | 8 | 347 | 4.8 | 14.5 | 0.08 | 1.75 | 0.86 | 97 | 1005.7 |
| 20260506093054 | 8 | 332 | 3.2 | 16.1 | 0.08 | 1.70 | 0.81 | 97 | 1005.4 |
| 20260506091551 | 9 | 345 | 6.4 | 14.5 | 0.13 | 1.70 | 0.81 | 97 | 1005.3 |
| 20260506090049 | 9 | 322 | 4.8 | 11.3 | 0.15 | 1.68 | 0.79 | 97 | 1005.2 |
| 20260506084548 | 9 | 355 | 4.8 | 11.3 | 0.18 | 1.68 | 0.79 | 97 | 1004.9 |
| 20260506083047 | 9 | 344 | 4.8 | 11.3 | 0.15 | 1.63 | 0.71 | 97 | 1005.0 |
| 20260506081545 | 9 | 329 | 4.8 | 9.7 | 0.13 | 1.57 | 0.69 | 97 | 1005.0 |
| 20260506073040 | 10 | 330 | 3.2 | 8.0 | 0.13 | 1.45 | 0.58 | 97 | 1004.8 |
| 20260506071541 | 10 | 321 | 3.2 | 9.7 | 0.13 | 1.42 | 0.56 | 97 | 1004.9 |
| 20260506061533 | 10 | 57 | 3.2 | 6.4 | 0.18 | 1.32 | 0.43 | 97 | 1005.1 |
| 20260506044514 | 13 | 319 | 4.8 | 9.7 | 0.15 | 1.02 | 0.13 | 97 | 1006.0 |
| 20260506043013 | 13 | 253 | 1.6 | 4.8 | 0.13 | 0.97 | 0.08 | 97 | 1006.0 |
| 20260506041514 | 13 | 271 | 1.6 | 4.8 | 0.13 | 0.94 | 0.05 | 97 | 1006.2 |
| 20260506040010 | 13 | 266 | 1.6 | 4.8 | 0.10 | 0.89 | 0.00 | 97 | 1006.4 |
| 20260506034510 | 14 | 275 | 4.8 | 9.7 | 0.10 | 0.86 | 0.86 | 97 | 1006.4 |
| 20260506033007 | 14 | 244 | 4.8 | 8.0 | 0.13 | 0.84 | 0.84 | 97 | 1006.6 |
| 20260506031507 | 14 | 270 | 3.2 | 11.3 | 0.15 | 0.81 | 0.81 | 97 | 1006.7 |
| 20260506030014 | 14 | 217 | 8.0 | 14.5 | 0.15 | 0.79 | 0.79 | 97 | 1006.8 |
| 20260506024516 | 14 | 224 | 1.6 | 6.4 | 0.13 | 0.76 | 0.76 | 96 | 1006.7 |
| 20260506023005 | 13 | 224 | 1.6 | 3.2 | 0.10 | 0.71 | 0.71 | 96 | 1006.5 |
| 20260506021504 | 14 | 223 | 1.6 | 6.4 | 0.10 | 0.66 | 0.66 | 96 | 1006.5 |
| 20260506020005 | 14 | 227 | 1.6 | 4.8 | 0.08 | 0.64 | 0.64 | 96 | 1006.6 |
| 20260506014502 | 14 | 217 | 3.2 | 8.0 | 0.08 | 0.64 | 0.64 | 95 | 1006.6 |
| 20260506013002 | 14 | 263 | 1.6 | 4.8 | 0.08 | 0.61 | 0.61 | 95 | 1006.6 |
| 20260506011600 | 14 | 295 | 0.0 | 1.6 | 0.18 | 0.56 | 0.56 | 95 | 1006.4 |
| 20260506010059 | 14 | 311 | 0.0 | 1.6 | 0.46 | 0.56 | 0.56 | 94 | 1006.2 |
| 20260506004559 | 14 | 311 | 0.0 | 4.8 | 0.46 | 0.56 | 0.56 | 94 | 1006.2 |
| 20260506003057 | 15 | 312 | 3.2 | 12.9 | 0.43 | 0.53 | 0.53 | 92 | 1006.5 |
| 20260506001556 | 16 | 286 | 16.1 | 25.7 | 0.23 | 0.33 | 0.33 | 87 | 1006.8 |
| 20260506000052 | 17 | 259 | 0.0 | 0.0 | 0.00 | 0.10 | 0.10 | 83 | 1005.2 |
| 20260505234554 | 17 | 259 | 0.0 | 4.8 | 0.00 | 0.10 | 0.10 | 82 | 1005.3 |
| 20260505233050 | 18 | 257 | 1.6 | 3.2 | 0.00 | 0.10 | 0.10 | 80 | 1005.4 |
| 20260505231600 | 18 | 257 | 1.6 | 4.8 | 0.00 | 0.10 | 0.10 | 79 | 1005.5 |
| 20260505230057 | 18 | 227 | 0.0 | 1.6 | 0.00 | 0.10 | 0.10 | 77 | 1005.5 |
| 20260505224549 | 18 | 227 | 0.0 | 0.0 | 0.00 | 0.10 | 0.10 | 77 | 1005.5 |
| 20260505223048 | 18 | 227 | 1.6 | 6.4 | 0.00 | 0.10 | 0.10 | 76 | 1005.8 |
| 20260505221548 | 18 | 229 | 1.6 | 4.8 | 0.00 | 0.10 | 0.10 | 79 | 1005.9 |
| 20260505220047 | 18 | 229 | 1.6 | 6.4 | 0.00 | 0.10 | 0.10 | 80 | 1005.7 |
| 20260505214549 | 17 | 267 | 1.6 | 4.8 | 0.00 | 0.10 | 0.10 | 82 | 1005.8 |
| 20260505213054 | 17 | 275 | 1.6 | 4.8 | 0.00 | 0.10 | 0.10 | 83 | 1005.8 |
| 20260505211550 | 17 | 272 | 3.2 | 6.4 | 0.00 | 0.10 | 0.10 | 83 | 1005.9 |
| 20260505210046 | 17 | 246 | 3.2 | 8.0 | 0.00 | 0.10 | 0.10 | 83 | 1006.0 |
| 20260505204545 | 17 | 275 | 3.2 | 8.0 | 0.00 | 0.10 | 0.10 | 83 | 1006.1 |
| 20260505203046 | 18 | 253 | 4.8 | 11.3 | 0.00 | 0.10 | 0.10 | 78 | 1006.1 |
| 20260505201547 | 19 | 223 | 6.4 | 17.7 | 0.00 | 0.10 | 0.10 | 69 | 1006.0 |
| 20260505200046 | 20 | 221 | 6.4 | 16.1 | 0.00 | 0.10 | 0.10 | 67 | 1005.9 |
| 20260505194546 | 20 | 209 | 4.8 | 12.9 | 0.00 | 0.10 | 0.10 | 68 | 1006.0 |
| 20260505193043 | 20 | 221 | 6.4 | 17.7 | 0.00 | 0.10 | 0.10 | 67 | 1006.4 |
| 20260505191554 | 20 | 225 | 8.0 | 16.1 | 0.00 | 0.10 | 0.10 | 66 | 1006.4 |
| 20260505190041 | 20 | 234 | 9.7 | 17.7 | 0.00 | 0.10 | 0.10 | 66 | 1006.6 |
| 20260505184541 | 20 | 246 | 8.0 | 19.3 | 0.00 | 0.10 | 0.10 | 66 | 1006.8 |
| 20260505183041 | 19 | 261 | 11.3 | 22.5 | 0.00 | 0.10 | 0.10 | 65 | 1006.8 |
| 20260505181540 | 20 | 236 | 17.7 | 33.8 | 0.00 | 0.10 | 0.10 | 62 | 1006.6 |
| 20260505180051 | 21 | 219 | 14.5 | 37.0 | 0.00 | 0.10 | 0.10 | 63 | 1006.6 |
| 20260505174548 | 20 | 211 | 19.3 | 38.6 | 0.00 | 0.10 | 0.10 | 63 | 1006.6 |
| 20260505173039 | 21 | 228 | 17.7 | 27.4 | 0.00 | 0.10 | 0.10 | 62 | 1006.5 |
| 20260505171537 | 21 | 228 | 14.5 | 37.0 | 0.00 | 0.10 | 0.10 | 64 | 1006.6 |
| 20260505170038 | 21 | 208 | 20.9 | 30.6 | 0.00 | 0.10 | 0.10 | 61 | 1006.4 |
| 20260505164540 | 21 | 207 | 22.5 | 45.1 | 0.00 | 0.10 | 0.10 | 62 | 1006.4 |
| 20260505163035 | 21 | 236 | 20.9 | 37.0 | 0.00 | 0.10 | 0.10 | 63 | 1006.2 |
| 20260505161534 | 21 | 221 | 22.5 | 38.6 | 0.03 | 0.10 | 0.10 | 62 | 1006.1 |
| 20260505153026 | 20 | 217 | 20.9 | 48.3 | 0.03 | 0.10 | 0.10 | 69 | 1006.4 |
| 20260505151523 | 19 | 205 | 24.1 | 41.8 | 0.00 | 0.08 | 0.08 | 71 | 1006.5 |
| 20260505124505 | 17 | 218 | 16.1 | 27.4 | 0.00 | 0.00 | 0.00 | 71 | 1006.0 |
| 20260505123001 | 17 | 206 | 16.1 | 30.6 | 0.00 | 0.00 | 0.00 | 71 | 1006.0 |
| 20260505121559 | 17 | 202 | 14.5 | 27.4 | 0.00 | 0.00 | 0.00 | 70 | 1006.0 |
| 20260505114602 | 17 | 201 | 17.7 | 27.4 | 0.00 | 0.00 | 0.00 | 72 | 1006.0 |
| 20260505113057 | 16 | 215 | 14.5 | 27.4 | 0.00 | 0.00 | 0.00 | 74 | 1006.0 |